EW7937 Weather Reports


Display with metric or nautical units.
time (UTC)temp
F
wind
direction
speed
MPH
gust
MPH
rain 1hr
in
rain 24hr
in
rain mn
in
humidity
%
barometer
mb
20260902025849 77 281 0.0 4.0 0.00 0.00 0.00 38 1013.4
20260902025103 77 308 0.0 8.0 0.00 0.00 0.00 37 1013.4
20260902024607 77 336 0.0 8.0 0.00 0.00 0.00 37 1013.3
20260902024103 78 304 0.0 10.0 0.00 0.00 0.00 36 1013.3
20260902023848 78 302 2.0 10.0 0.00 0.00 0.00 35 1013.3
20260902023428 78 292 3.0 8.0 0.00 0.00 0.00 35 1013.2
20260902023421 78 289 1.0 8.0 0.00 0.00 0.00 35 1013.2
20260902022051 78 258 1.0 4.0 0.00 0.00 0.00 36 1013.2
20260902021545 79 263 0.0 2.0 0.00 0.00 0.00 36 1013.2
20260902021036 79 281 0.0 0.0 0.00 0.00 0.00 35 1013.1
20260902020823 79 281 0.0 0.0 0.00 0.00 0.00 35 1013.1
20260902020031 80 281 0.0 0.0 0.00 0.00 0.00 35 1013.0
20260902015532 80 281 0.0 0.0 0.00 0.00 0.00 35 1013.0
20260902015032 80 281 0.0 0.0 0.00 0.00 0.00 35 1012.9
20260902014532 81 281 0.0 6.0 0.00 0.00 0.00 34 1012.9
20260902014032 81 281 1.0 6.0 0.00 0.00 0.00 35 1012.9
20260902013532 81 279 0.0 0.0 0.00 0.00 0.00 35 1012.8
20260902013033 82 279 0.0 0.0 0.00 0.00 0.00 34 1012.8
20260902012532 82 300 0.0 5.0 0.00 0.00 0.00 34 1012.7
20260902012031 82 300 0.0 7.0 0.00 0.00 0.00 34 1012.8
20260902011531 83 301 1.0 7.0 0.00 0.00 0.00 34 1012.8
20260902011032 83 284 0.0 0.0 0.00 0.00 0.00 34 1012.8
20260902010810 83 284 0.0 10.0 0.00 0.00 0.00 35 1012.8
20260902010026 83 284 3.0 10.0 0.00 0.00 0.00 33 1012.8
20260902005507 83 290 1.0 4.0 0.00 0.00 0.00 34 1012.8
20260902005008 83 248 0.0 4.0 0.00 0.00 0.00 34 1012.9
20260902004509 84 248 2.0 4.0 0.00 0.00 0.00 34 1012.9
20260902004005 84 331 0.0 0.0 0.00 0.00 0.00 33 1012.9
20260902003525 84 331 0.0 0.0 0.00 0.00 0.00 34 1012.8
20260902003514 84 331 0.0 0.0 0.00 0.00 0.00 33 1012.9
20260902002738 84 331 0.0 4.0 0.00 0.00 0.00 34 1012.8
20260902002243 84 331 0.0 4.0 0.00 0.00 0.00 33 1012.8
20260902001505 85 296 0.0 0.0 0.00 0.00 0.00 34 1012.8
20260902001003 85 296 3.0 8.0 0.00 0.00 0.00 33 1012.8
20260902000746 85 296 1.0 8.0 0.00 0.00 0.00 33 1012.9
20260902000003 85 286 0.0 5.0 0.00 0.00 0.00 32 1012.9
20260901235504 85 286 1.0 6.0 0.00 0.00 0.00 31 1013.0
20260901235250 85 302 3.0 9.0 0.00 0.00 0.00 32 1013.0
20260901234505 86 254 2.0 9.0 0.00 0.00 0.00 32 1013.1
20260901234004 86 242 4.0 8.0 0.00 0.00 0.00 32 1013.1
20260901233504 86 296 0.0 1.0 0.00 0.00 0.00 32 1013.0
20260901233002 86 230 0.0 0.0 0.00 0.00 0.00 31 1013.0
20260901232504 86 230 0.0 5.0 0.00 0.00 0.00 33 1013.2
20260901232243 86 230 0.0 5.0 0.00 0.00 0.00 33 1013.2
20260901231503 86 253 3.0 7.0 0.00 0.00 0.00 32 1013.3
20260901231004 86 246 0.0 8.0 0.00 0.00 0.00 32 1013.4
20260901230759 86 246 0.0 8.0 0.00 0.00 0.00 31 1013.5
20260901230006 86 244 2.0 8.0 0.00 0.00 0.00 32 1013.6
20260901225739 86 253 6.0 9.0 0.00 0.00 0.00 31 1013.5
20260901225004 86 253 6.0 9.0 0.00 0.00 0.00 31 1013.6
20260901224503 87 269 0.0 7.0 0.00 0.00 0.00 31 1013.6
20260901224002 87 240 4.0 7.0 0.00 0.00 0.00 31 1013.7
20260901223502 87 311 1.0 5.0 0.00 0.00 0.00 30 1013.8
20260901223006 87 294 1.0 4.0 0.00 0.00 0.00 31 1013.9
20260901222746 86 258 0.0 7.0 0.00 0.00 0.00 31 1013.9
20260901222002 86 257 4.0 7.0 0.00 0.00 0.00 30 1013.9
20260901221504 86 248 0.0 7.0 0.00 0.00 0.00 31 1013.9
20260901221003 86 248 1.0 7.0 0.00 0.00 0.00 30 1014.0
20260901220504 86 266 1.0 7.0 0.00 0.00 0.00 31 1014.2
20260901220003 86 232 3.0 8.0 0.00 0.00 0.00 32 1014.1
20260901215505 85 224 3.0 8.0 0.00 0.00 0.00 33 1014.2
20260901215005 85 243 0.0 4.0 0.00 0.00 0.00 32 1014.3
20260901214751 86 243 3.0 9.0 0.00 0.00 0.00 34 1014.4
20260901214005 85 236 4.0 9.0 0.00 0.00 0.00 33 1014.3
20260901213503 86 244 1.0 7.0 0.00 0.00 0.00 31 1014.4
20260901213000 86 244 2.0 8.0 0.00 0.00 0.00 32 1014.4
20260901212457 85 285 2.0 8.0 0.00 0.00 0.00 32 1014.5
20260901212245 85 311 4.0 8.0 0.00 0.00 0.00 33 1014.5
20260901211452 85 250 3.0 8.0 0.00 0.00 0.00 33 1014.6
20260901210954 85 238 0.0 6.0 0.00 0.00 0.00 35 1014.6
20260901210452 85 221 1.0 7.0 0.00 0.00 0.00 32 1014.7
20260901205952 85 216 2.0 7.0 0.00 0.00 0.00 33 1014.7
20260901205452 85 235 0.0 3.0 0.00 0.00 0.00 33 1014.7
20260901204951 85 235 1.0 3.0 0.00 0.00 0.00 36 1014.8
20260901204738 84 234 0.0 1.0 0.00 0.00 0.00 35 1014.9
20260901204036 84 266 0.0 0.0 0.00 0.00 0.00 33 1015.0
20260901204017 84 266 0.0 0.0 0.00 0.00 0.00 36 1015.0
20260901202949 84 266 0.0 0.0 0.00 0.00 0.00 36 1015.1
20260901202448 84 266 0.0 0.0 0.00 0.00 0.00 36 1015.1
20260901201944 84 266 0.0 0.0 0.00 0.00 0.00 35 1015.3
20260901201439 84 266 0.0 0.0 0.00 0.00 0.00 37 1015.3
20260901201011 83 266 0.0 0.0 0.00 0.00 0.00 37 1015.5
20260901200954 83 266 0.0 0.0 0.00 0.00 0.00 35 1015.4
20260901195933 82 266 0.0 0.0 0.00 0.00 0.00 37 1015.5
20260901195433 82 266 0.0 6.0 0.00 0.00 0.00 38 1015.6
20260901194934 82 266 0.0 6.0 0.00 0.00 0.00 37 1015.7
20260901194432 82 236 0.0 1.0 0.00 0.00 0.00 36 1015.7
20260901193932 82 301 0.0 1.0 0.00 0.00 0.00 37 1015.7
20260901193431 82 301 0.0 5.0 0.00 0.00 0.00 39 1015.9
20260901192931 82 301 0.0 5.0 0.00 0.00 0.00 38 1015.9
20260901192432 82 254 0.0 5.0 0.00 0.00 0.00 40 1015.9
20260901191932 81 299 0.0 2.0 0.00 0.00 0.00 41 1016.0
20260901191432 81 299 0.0 2.0 0.00 0.00 0.00 39 1016.2
20260901190931 80 265 0.0 6.0 0.00 0.00 0.00 39 1016.0
20260901190433 80 259 1.0 6.0 0.00 0.00 0.00 40 1016.1
20260901185936 80 307 0.0 3.0 0.00 0.00 0.00 41 1016.1
20260901185433 80 305 0.0 4.0 0.00 0.00 0.00 41 1016.2
20260901184933 80 305 0.0 4.0 0.00 0.00 0.00 40 1016.2
20260901184432 79 300 0.0 0.0 0.00 0.00 0.00 41 1016.2
20260901183931 79 300 0.0 0.0 0.00 0.00 0.00 40 1016.3
20260901183431 79 300 0.0 4.0 0.00 0.00 0.00 40 1016.2
20260901182932 78 300 0.0 4.0 0.00 0.00 0.00 41 1016.3
20260901182432 78 242 0.0 0.0 0.00 0.00 0.00 42 1016.2
20260901182218 78 242 0.0 1.0 0.00 0.00 0.00 43 1016.4
20260901181426 77 242 0.0 3.0 0.00 0.00 0.00 45 1016.4
20260901180919 77 269 0.0 9.0 0.00 0.00 0.00 43 1016.4
20260901180418 77 281 1.0 9.0 0.00 0.00 0.00 43 1016.4
20260901175917 76 313 0.0 0.0 0.00 0.00 0.00 44 1016.4
20260901175708 76 313 0.0 6.0 0.00 0.00 0.00 45 1016.5
20260901174911 76 306 0.0 8.0 0.00 0.00 0.00 45 1016.5
20260901174408 75 306 0.0 9.0 0.00 0.00 0.00 44 1016.5
20260901173907 75 290 0.0 9.0 0.00 0.00 0.00 44 1016.5
20260901173403 75 279 0.0 7.0 0.00 0.00 0.00 46 1016.4
20260901172902 74 294 0.0 5.0 0.00 0.00 0.00 46 1016.4
20260901172404 74 281 1.0 4.0 0.00 0.00 0.00 46 1016.4
20260901172152 74 294 0.0 10.0 0.00 0.00 0.00 47 1016.4
20260901171356 73 281 2.0 10.0 0.00 0.00 0.00 47 1016.3
20260901170855 73 301 0.0 8.0 0.00 0.00 0.00 48 1016.3
20260901170356 72 285 1.0 9.0 0.00 0.00 0.00 49 1016.3
20260901165853 71 315 2.0 11.0 0.00 0.00 0.00 50 1016.4
20260901165351 71 323 0.0 11.0 0.00 0.00 0.00 51 1016.3
20260901164851 71 286 1.0 12.0 0.00 0.00 0.00 50 1016.2
20260901164348 70 277 4.0 12.0 0.00 0.00 0.00 51 1016.2
20260901163845 70 304 0.0 11.0 0.00 0.00 0.00 53 1016.2
20260901163632 70 323 3.0 11.0 0.00 0.00 0.00 52 1016.1
20260901162839 70 279 2.0 8.0 0.00 0.00 0.00 53 1016.0
20260901162332 69 306 0.0 8.0 0.00 0.00 0.00 53 1016.1
20260901161835 69 301 1.0 8.0 0.00 0.00 0.00 54 1016.0
20260901161331 69 293 1.0 6.0 0.00 0.00 0.00 54 1016.0
20260901160833 68 312 0.0 9.0 0.00 0.00 0.00 56 1015.9
20260901160618 67 312 0.0 9.0 0.00 0.00 0.00 57 1015.8
20260901155833 67 296 0.0 9.0 0.00 0.00 0.00 58 1015.7
20260901155331 66 313 0.0 13.0 0.00 0.00 0.00 59 1015.6
20260901154834 66 300 1.0 13.0 0.00 0.00 0.00 60 1015.7
20260901154331 65 283 3.0 12.0 0.00 0.00 0.00 61 1015.6
20260901153831 64 311 2.0 10.0 0.00 0.00 0.00 61 1015.6
20260901153332 64 319 0.0 9.0 0.00 0.00 0.00 63 1015.6
20260901153123 63 290 0.0 9.0 0.00 0.00 0.00 64 1015.5
20260901152332 63 325 0.0 12.0 0.00 0.00 0.00 65 1015.5
20260901151834 62 290 3.0 13.0 0.00 0.00 0.00 66 1015.4
20260901151624 62 317 3.0 13.0 0.00 0.00 0.00 67 1015.3
20260901150833 61 310 1.0 10.0 0.00 0.00 0.00 69 1015.4
20260901150332 60 308 1.0 9.0 0.00 0.00 0.00 70 1015.4
20260901145825 60 315 0.0 4.0 0.00 0.00 0.00 71 1015.3
20260901145325 60 300 0.0 8.0 0.00 0.00 0.00 71 1015.4
20260901144815 60 321 0.0 10.0 0.00 0.00 0.00 71 1015.3
20260901144316 60 303 3.0 10.0 0.00 0.00 0.00 72 1015.2
20260901143812 59 301 0.0 11.0 0.00 0.00 0.00 72 1015.2
20260901143312 59 303 3.0 11.0 0.00 0.00 0.00 73 1015.2
20260901142805 59 308 1.0 7.0 0.00 0.00 0.00 74 1015.2
20260901142306 59 296 0.0 4.0 0.00 0.00 0.00 74 1015.1
20260901142118 59 296 0.0 0.0 0.00 0.00 0.00 75 1014.9
20260901141824 59 296 0.0 4.0 0.00 0.00 0.00 74 1015.0
20260901140805 59 296 0.0 0.0 0.00 0.00 0.00 75 1014.8
20260901140304 59 296 0.0 1.0 0.00 0.00 0.00 75 1014.7
20260901135804 59 296 0.0 1.0 0.00 0.00 0.00 75 1014.7
20260901135305 59 258 0.0 1.0 0.00 0.00 0.00 75 1014.7
20260901134803 59 269 0.0 1.0 0.00 0.00 0.00 74 1014.6
20260901134304 59 269 0.0 1.0 0.00 0.00 0.00 74 1014.5
20260901133803 59 272 0.0 1.0 0.00 0.00 0.00 74 1014.4
20260901133553 59 294 0.0 0.0 0.00 0.00 0.00 74 1014.2
20260901132803 59 294 0.0 0.0 0.00 0.00 0.00 74 1014.1
20260901132307 59 294 0.0 0.0 0.00 0.00 0.00 74 1014.0
20260901131804 59 294 0.0 0.0 0.00 0.00 0.00 73 1014.1
20260901131303 59 294 0.0 0.0 0.00 0.00 0.00 73 1013.9
20260901130803 59 294 0.0 0.0 0.00 0.00 0.00 73 1013.9
20260901130305 59 294 0.0 0.0 0.00 0.00 0.00 72 1013.7
20260901125804 60 294 0.0 0.0 0.00 0.00 0.00 72 1013.7
20260901125308 60 294 0.0 0.0 0.00 0.00 0.00 72 1013.6
20260901124803 60 294 0.0 0.0 0.00 0.00 0.00 71 1013.5
20260901124305 60 294 0.0 0.0 0.00 0.00 0.00 71 1013.4
20260901123805 60 294 0.0 0.0 0.00 0.00 0.00 71 1013.4
20260901123305 60 294 0.0 0.0 0.00 0.00 0.00 71 1013.5
20260901122804 60 294 0.0 0.0 0.00 0.00 0.00 71 1013.5
20260901122258 60 294 0.0 0.0 0.00 0.00 0.00 71 1013.6
20260901121758 60 294 0.0 1.0 0.00 0.00 0.00 71 1013.7
20260901121255 60 294 0.0 1.0 0.00 0.00 0.00 71 1013.6
20260901120756 60 295 0.0 5.0 0.00 0.00 0.00 71 1013.6
20260901120252 60 295 0.0 5.0 0.00 0.00 0.00 71 1013.4
20260901115752 60 293 0.0 5.0 0.00 0.00 0.00 71 1013.3
20260901115253 61 303 1.0 4.0 0.00 0.00 0.00 71 1013.3
20260901114750 61 298 0.0 0.0 0.00 0.00 0.00 71 1013.3
20260901114249 61 298 0.0 0.0 0.00 0.00 0.00 72 1013.4
20260901114037 61 298 0.0 0.0 0.00 0.00 0.00 72 1013.4
20260901113537 61 298 0.0 7.0 0.00 0.00 0.00 71 1013.4
20260901112738 61 298 0.0 7.0 0.00 0.00 0.00 71 1013.4
20260901112237 61 304 0.0 1.0 0.00 0.00 0.00 71 1013.4
20260901111730 61 304 0.0 1.0 0.00 0.00 0.00 71 1013.3
20260901111233 61 304 0.0 0.0 0.00 0.00 0.00 71 1013.2
20260901110733 62 304 0.0 0.0 0.00 0.00 0.00 70 1013.3
20260901110232 62 304 0.0 1.0 0.00 0.00 0.00 70 1013.3
20260901105733 62 304 0.0 1.0 0.00 0.00 0.00 70 1013.3
20260901105228 62 304 0.0 0.0 0.00 0.00 0.00 70 1013.2
20260901104725 62 304 0.0 0.0 0.00 0.00 0.00 70 1013.2
20260901104220 62 304 0.0 0.0 0.00 0.00 0.00 70 1013.2
20260901103711 62 304 0.0 2.0 0.00 0.00 0.00 69 1013.1
20260901103208 62 304 0.0 2.0 0.00 0.00 0.00 69 1013.2
20260901102705 62 319 0.0 3.0 0.00 0.00 0.00 69 1013.0
20260901102203 62 319 0.0 5.0 0.00 0.00 0.00 69 1012.8
20260901101705 63 297 1.0 5.0 0.00 0.00 0.00 69 1012.8
20260901101203 63 296 0.0 0.0 0.00 0.00 0.00 68 1012.9
20260901100702 63 296 0.0 0.0 0.00 0.00 0.00 68 1012.9
20260901100244 63 296 0.0 0.0 0.00 0.00 0.00 68 1012.6
20260901100228 63 296 0.0 0.0 0.00 0.00 0.00 68 1012.8
20260901095205 63 296 0.0 0.0 0.00 0.00 0.00 68 1012.8
20260901094705 64 296 0.0 1.0 0.00 0.00 0.00 68 1012.7
20260901094205 64 296 0.0 4.0 0.00 0.00 0.00 67 1012.6
20260901093703 64 289 0.0 4.0 0.00 0.00 0.00 67 1012.6
20260901093204 64 300 0.0 4.0 0.00 0.00 0.00 67 1012.7
20260901092704 64 300 1.0 4.0 0.00 0.00 0.00 67 1012.6
20260901092202 64 276 0.0 11.0 0.00 0.00 0.00 67 1012.5
20260901091703 64 295 2.0 11.0 0.00 0.00 0.00 66 1012.6
20260901091202 65 297 1.0 9.0 0.00 0.00 0.00 66 1012.6
20260901090704 65 269 0.0 9.0 0.00 0.00 0.00 66 1012.6
20260901090204 65 296 1.0 8.0 0.00 0.00 0.00 66 1012.8
20260901085703 65 302 0.0 8.0 0.00 0.00 0.00 66 1012.7
20260901085204 65 302 0.0 8.0 0.00 0.00 0.00 66 1012.5
20260901084703 65 311 0.0 8.0 0.00 0.00 0.00 65 1012.5
20260901084204 65 309 0.0 1.0 0.00 0.00 0.00 65 1012.5
20260901083702 66 306 0.0 9.0 0.00 0.00 0.00 65 1012.6
20260901083202 66 306 0.0 9.0 0.00 0.00 0.00 65 1012.4
20260901082704 66 283 0.0 8.0 0.00 0.00 0.00 65 1012.4
20260901082447 66 311 1.0 7.0 0.00 0.00 0.00 64 1012.4
20260901081703 66 321 0.0 3.0 0.00 0.00 0.00 64 1012.5
20260901081204 67 319 0.0 3.0 0.00 0.00 0.00 64 1012.4
20260901080703 67 314 0.0 1.0 0.00 0.00 0.00 64 1012.4
20260901080447 67 301 0.0 0.0 0.00 0.00 0.00 63 1012.5
20260901075704 67 301 0.0 4.0 0.00 0.00 0.00 63 1012.6
20260901075205 67 301 0.0 4.0 0.00 0.00 0.00 63 1012.5
20260901074704 67 302 0.0 7.0 0.00 0.00 0.00 62 1012.5
20260901074204 68 294 0.0 7.0 0.00 0.00 0.00 62 1012.4
20260901073952 68 298 0.0 9.0 0.00 0.00 0.00 62 1012.4
20260901073202 68 294 0.0 13.0 0.00 0.00 0.00 62 1012.4
20260901072703 68 306 2.0 13.0 0.00 0.00 0.00 61 1012.3
20260901072202 68 311 0.0 7.0 0.00 0.00 0.00 61 1012.2
20260901071705 69 329 1.0 8.0 0.00 0.00 0.00 60 1012.2
20260901071453 69 306 0.0 8.0 0.00 0.00 0.00 60 1012.1
20260901070702 69 315 0.0 1.0 0.00 0.00 0.00 60 1012.0
20260901070203 0 0.0 0.0 0.00 0.00 0.00
20260901065704 70 296 0.0 0.0 0.00 0.00 0.00 58 1012.0
20260901065435 70 296 0.0 13.0 0.00 0.00 0.00 58 1012.0
20260901064747 70 282 4.0 11.0 0.00 0.00 0.00 57 1011.8
20260901064733 70 296 1.0 13.0 0.00 0.00 0.00 58 1012.0
20260901063704 71 304 1.0 8.0 0.00 0.00 0.00 56 1011.7
20260901063205 71 307 3.0 8.0 0.00 0.00 0.00 56 1011.6
20260901062703 71 295 1.0 7.0 0.00 0.00 0.00 56 1011.6
20260901062202 71 305 1.0 7.0 0.00 0.00 0.00 55 1011.5
20260901061702 72 305 3.0 3.0 0.00 0.00 0.00 54 1011.3
20260901061205 72 311 1.0 2.0 0.00 0.00 0.00 53 1011.5
20260901060703 73 305 5.0 4.0 0.00 0.00 0.00 52 1011.3
20260901060203 73 300 4.0 4.0 0.00 0.00 0.00 52 1011.4
20260901055939 73 309 0.0 4.0 0.00 0.00 0.00 51 1011.3
20260901055445 73 299 0.0 0.0 0.00 0.00 0.00 51 1011.2
20260901054704 74 299 0.0 0.0 0.00 0.00 0.00 49 1011.1
20260901054203 74 299 0.0 0.0 0.00 0.00 0.00 49 1011.1
20260901053704 74 299 1.0 1.0 0.00 0.00 0.00 48 1011.1
20260901053204 75 299 3.0 6.0 0.00 0.00 0.00 48 1011.1
20260901052704 75 277 1.0 7.0 0.00 0.00 0.00 47 1011.0
20260901052202 75 273 0.0 7.0 0.00 0.00 0.00 46 1010.9
20260901051703 76 298 0.0 5.0 0.00 0.00 0.00 44 1010.9
20260901051204 76 298 0.0 9.0 0.00 0.00 0.00 44 1010.9
20260901050703 76 295 2.0 9.0 0.00 0.00 0.00 44 1010.9
20260901050202 77 312 1.0 7.0 0.00 0.00 0.00 43 1010.7
20260901045704 77 297 0.0 8.0 0.00 0.00 0.00 42 1010.6
20260901045203 77 300 1.0 9.0 0.00 0.00 0.00 42 1010.6
20260901044705 78 298 1.0 10.0 0.00 0.00 0.00 42 1010.4
20260901044203 78 306 0.0 10.0 0.00 0.00 0.00 42 1010.5
20260901043703 78 301 0.0 6.0 0.00 0.00 0.00 41 1010.6
20260901043204 79 301 0.0 7.0 0.00 0.00 0.00 41 1010.3
20260901042705 79 307 0.0 9.0 0.00 0.00 0.00 41 1010.4
20260901042203 79 298 1.0 9.0 0.00 0.00 0.00 40 1010.4
20260901041705 80 325 0.0 9.0 0.00 0.00 0.00 40 1010.2
20260901041203 80 294 1.0 9.0 0.00 0.00 0.00 39 1010.2
20260901040704 80 298 0.0 8.0 0.00 0.00 0.00 38 1010.1
20260901040205 81 319 1.0 10.0 0.00 0.00 0.00 38 1010.0
20260901035704 81 300 0.0 10.0 0.00 0.00 0.00 38 1009.9
20260901035205 81 305 0.0 8.0 0.00 0.00 0.00 37 1009.7
20260901034703 82 290 0.0 8.0 0.00 0.00 0.00 37 1009.7
20260901034202 82 282 1.0 10.0 0.00 0.00 0.00 37 1009.7
20260901033702 82 289 2.0 10.0 0.00 0.00 0.00 36 1009.7
20260901033202 83 304 0.0 7.0 0.00 0.00 0.00 36 1009.6
20260901032706 83 290 0.0 7.0 0.00 0.00 0.00 36 1009.6
20260901032204 83 298 0.0 7.0 0.00 0.00 0.00 35 1009.5
20260901031705 84 313 0.0 1.0 0.00 0.00 0.00 35 1009.4
20260901031204 84 313 0.0 13.0 0.00 0.00 0.00 35 1009.4
20260901030702 84 309 3.0 13.0 0.00 0.00 0.00 34 1009.3
20260901030449 85 304 0.0 0.0 0.00 0.00 0.00 34 1009.3